Location: Lincoln Park
(32.7042°N, 117.0895°W)
Time: 17:46:10
(UTC+00:00)

CZ-2C R/B - Pass Details

Date: 26 June 2022
Orbit: 667 x 784 km, 98.3° (Epoch: 09 August)

Event Time Altitude Azimuth Distance (km) Brightness Sun altitude
Rises 12:08:48 0° 356° (N) 3,051 6.0 -6.9°
Reaches altitude 10° 12:11:26 10° 342° (NNW) 2,118 5.0 -6.4°
Maximum altitude 12:15:00 23° 291° (WNW) 1,430 3.6 -5.8°
Drops below altitude 10° 12:18:32 10° 239° (WSW) 2,087 4.1 -5.2°
Enters shadow 12:19:36 - 232° (SW) 2,445 4.4 -5.0°
